FW7184 Weather Reports


Display with metric or nautical units.
time (UTC)temp
F
wind
direction
speed
MPH
gust
MPH
rain 1hr
in
rain 24hr
in
rain mn
in
humidity
%
barometer
mb
20260506014003 66 129 0.0 0.0 0.00 0.01 0.01 68 1010.0
20260506013501 66 138 0.0 0.0 0.00 0.01 0.01 68 1009.6
20260506012957 66 136 0.0 0.0 0.00 0.01 0.01 68 1009.8
20260506012453 66 135 0.0 0.0 0.00 0.01 0.01 66 1009.6
20260506011951 67 144 1.0 2.0 0.00 0.01 0.01 66 1009.6
20260506011448 67 136 0.0 0.0 0.00 0.01 0.01 65 1009.6
20260506010944 68 94 1.0 2.0 0.00 0.01 0.01 63 1009.5
20260506010444 68 134 0.0 0.0 0.00 0.01 0.01 62 1009.3
20260506005939 69 128 0.0 0.0 0.00 0.01 0.01 61 1009.4
20260506005437 69 112 0.0 1.0 0.00 0.01 0.01 60 1009.4
20260506004932 70 117 0.0 0.0 0.00 0.01 0.01 59 1009.3
20260506004431 71 136 0.0 0.0 0.00 0.01 0.01 57 1009.0
20260506003926 71 128 0.0 0.0 0.00 0.01 0.01 55 1009.0
20260506003423 73 127 0.0 0.0 0.00 0.01 0.01 52 1009.0
20260506002919 74 144 0.0 0.0 0.00 0.01 0.01 47 1009.1
20260506002416 75 118 0.0 0.0 0.00 0.01 0.01 42 1008.8
20260506001911 75 127 0.0 0.0 0.00 0.01 0.01 41 1008.8
20260506001408 75 135 0.0 0.0 0.00 0.01 0.01 40 1008.9
20260506000905 75 107 0.0 1.0 0.00 0.01 0.01 41 1008.8
20260506000403 76 117 1.0 1.0 0.00 0.01 0.01 40 1008.3
20260505235859 76 109 1.0 1.0 0.00 0.01 0.01 39 1008.7
20260505235358 77 112 0.0 1.0 0.00 0.01 0.01 38 1008.7
20260505234854 77 135 0.0 1.0 0.00 0.01 0.01 37 1008.6
20260505234352 77 218 1.0 2.0 0.00 0.01 0.01 37 1008.4
20260505233848 77 133 0.0 0.0 0.00 0.01 0.01 37 1008.5
20260505233346 77 125 0.0 0.0 0.00 0.01 0.01 37 1008.2
20260505232844 77 135 0.0 0.0 0.00 0.01 0.01 36 1008.3
20260505232341 78 145 1.0 2.0 0.00 0.01 0.01 36 1008.0
20260505231838 78 131 0.0 1.0 0.00 0.01 0.01 36 1008.3
20260505231335 78 99 4.0 6.0 0.00 0.01 0.01 36 1008.1
20260505230833 78 97 1.0 1.0 0.00 0.01 0.01 36 1008.0
20260505230330 78 129 2.0 2.0 0.00 0.01 0.01 36 1007.8
20260505225827 79 139 1.0 1.0 0.00 0.01 0.01 36 1007.9
20260505225325 78 163 1.0 1.0 0.00 0.01 0.01 35 1007.7
20260505224819 79 27 1.0 5.0 0.00 0.01 0.01 35 1007.5
20260505224317 78 131 1.0 2.0 0.00 0.01 0.01 36 1007.5
20260505223814 79 128 0.0 1.0 0.00 0.01 0.01 36 1007.4
20260505223311 79 137 1.0 1.0 0.00 0.01 0.01 38 1007.4
20260505222807 79 324 2.0 2.0 0.00 0.01 0.01 37 1007.6
20260505222305 80 125 0.0 1.0 0.00 0.01 0.01 36 1007.5
20260505221800 80 145 1.0 1.0 0.00 0.01 0.01 36 1007.6
20260505221257 80 119 0.0 1.0 0.00 0.01 0.01 36 1007.4
20260505220754 79 130 1.0 2.0 0.00 0.01 0.01 36 1007.7
20260505220251 79 165 1.0 3.0 0.00 0.01 0.01 36 1007.7
20260505215749 79 202 3.0 5.0 0.00 0.01 0.01 35 1007.5
20260505215247 79 40 3.0 5.0 0.00 0.01 0.01 37 1007.6
20260505214744 80 68 1.0 2.0 0.00 0.01 0.01 38 1007.5
20260505214241 80 133 2.0 2.0 0.00 0.01 0.01 37 1007.4
20260505213738 80 183 1.0 2.0 0.00 0.01 0.01 37 1007.5
20260505213236 79 111 1.0 2.0 0.00 0.01 0.01 38 1007.2
20260505212732 78 140 1.0 1.0 0.00 0.01 0.01 39 1007.2
20260505212229 78 142 1.0 2.0 0.00 0.01 0.01 40 1007.1
20260505211726 78 193 1.0 1.0 0.00 0.01 0.01 46 1007.1
20260505211224 78 132 1.0 1.0 0.00 0.01 0.01 45 1007.2
20260505210719 80 124 1.0 1.0 0.00 0.01 0.01 43 1007.4
20260505210217 80 84 2.0 3.0 0.00 0.01 0.01 40 1007.2
20260505205714 79 84 3.0 6.0 0.00 0.01 0.01 39 1006.8
20260505205212 79 75 1.0 1.0 0.00 0.01 0.01 40 1007.0
20260505204708 78 146 2.0 2.0 0.00 0.01 0.01 44 1006.9
20260505204207 78 146 1.0 2.0 0.00 0.01 0.01 50 1006.9
20260505203704 78 130 0.0 0.0 0.00 0.01 0.01 51 1007.2
20260505203200 79 125 0.0 0.0 0.00 0.01 0.01 50 1007.1
20260505202656 79 139 1.0 1.0 0.00 0.01 0.01 50 1007.5
20260505202152 78 130 0.0 1.0 0.00 0.01 0.01 49 1007.4
20260505201648 79 96 0.0 1.0 0.00 0.01 0.01 49 1007.2
20260505201147 79 117 0.0 0.0 0.00 0.01 0.01 51 1007.3
20260505200645 79 118 0.0 1.0 0.00 0.01 0.01 49 1007.4
20260505200141 79 150 2.0 2.0 0.00 0.01 0.01 51 1007.5
20260505195637 79 139 1.0 2.0 0.00 0.01 0.01 49 1007.7
20260505195134 78 126 0.0 1.0 0.00 0.01 0.01 50 1007.7
20260505194632 78 100 0.0 0.0 0.00 0.01 0.01 50 1007.9
20260505194127 79 180 1.0 2.0 0.00 0.01 0.01 49 1007.8
20260505193624 80 155 2.0 2.0 0.00 0.01 0.01 46 1007.9
20260505193121 81 130 1.0 1.0 0.00 0.01 0.01 46 1007.8
20260505192620 82 118 1.0 1.0 0.00 0.01 0.01 46 1007.9
20260505192117 81 41 1.0 1.0 0.00 0.01 0.01 46 1007.8
20260505191616 81 106 0.0 0.0 0.00 0.01 0.01 46 1007.9
20260505191113 81 118 2.0 5.0 0.00 0.01 0.01 45 1008.0
20260505190608 80 109 2.0 2.0 0.00 0.01 0.01 45 1008.3
20260505190104 80 131 1.0 2.0 0.00 0.01 0.01 46 1008.0
20260505185601 80 194 1.0 1.0 0.00 0.01 0.01 46 1008.3
20260505185057 81 154 1.0 1.0 0.00 0.01 0.01 46 1008.5
20260505184554 82 102 0.0 1.0 0.00 0.01 0.01 48 1008.6
20260505184051 81 119 1.0 3.0 0.00 0.01 0.01 47 1008.5
20260505183547 80 138 1.0 2.0 0.00 0.01 0.01 44 1008.7
20260505183045 82 130 1.0 1.0 0.00 0.01 0.01 44 1008.7
20260505182535 82 148 0.0 1.0 0.00 0.01 0.01 44 1008.6
20260505182032 81 131 1.0 1.0 0.00 0.01 0.01 47 1008.9
20260505181528 81 142 1.0 2.0 0.00 0.01 0.01 45 1008.5
20260505181026 80 172 2.0 2.0 0.00 0.01 0.01 43 1008.6
20260505180522 81 129 1.0 2.0 0.00 0.01 0.01 45 1008.9
20260505180021 82 114 0.0 0.0 0.00 0.01 0.01 46 1009.1
20260505175520 82 50 1.0 2.0 0.00 0.01 0.01 46 1009.0
20260505175017 81 183 2.0 2.0 0.00 0.01 0.01 44 1008.8
20260505174514 81 157 1.0 2.0 0.00 0.01 0.01 44 1008.8
20260505174010 81 125 1.0 1.0 0.00 0.01 0.01 46 1009.0
20260505173507 80 142 0.0 1.0 0.00 0.01 0.01 46 1008.9
20260505173004 80 50 2.0 3.0 0.00 0.01 0.01 47 1009.1
20260505172503 80 102 2.0 3.0 0.00 0.01 0.01 46 1009.4
20260505172002 79 79 0.0 1.0 0.00 0.01 0.01 47 1009.1
20260505171453 80 62 1.0 3.0 0.00 0.01 0.01 46 1009.2
20260505170950 81 168 1.0 2.0 0.00 0.01 0.01 46 1009.2
20260505170447 79 135 0.0 1.0 0.00 0.01 0.01 48 1009.4
20260505165942 79 53 2.0 3.0 0.00 0.01 0.01 47 1009.2
20260505165438 80 128 0.0 0.0 0.00 0.01 0.01 47 1009.7
20260505164933 79 139 1.0 2.0 0.00 0.01 0.01 46 1009.6
20260505164430 79 126 1.0 2.0 0.00 0.01 0.01 48 1009.7
20260505163928 78 153 2.0 2.0 0.00 0.01 0.01 48 1009.7
20260505163421 78 104 0.0 1.0 0.00 0.01 0.01 47 1009.9
20260505162920 78 165 1.0 1.0 0.00 0.01 0.01 47 1010.2
20260505162415 78 93 1.0 2.0 0.00 0.01 0.01 47 1009.9
20260505161912 78 158 1.0 1.0 0.00 0.01 0.01 48 1010.2
20260505161409 77 140 2.0 2.0 0.00 0.01 0.01 48 1010.1
20260505160907 77 138 1.0 1.0 0.00 0.01 0.01 49 1010.3
20260505160405 77 329 3.0 3.0 0.00 0.01 0.01 49 1010.3
20260505153343 76 123 0.0 1.0 0.00 0.01 0.01 52 1010.5
20260505152840 76 113 2.0 3.0 0.00 0.01 0.01 51 1010.5
20260505152338 76 107 0.0 1.0 0.00 0.01 0.01 53 1010.7
20260505151837 75 131 0.0 0.0 0.00 0.01 0.01 51 1010.5
20260505151334 75 199 1.0 2.0 0.00 0.01 0.01 52 1010.8
20260505150831 75 173 2.0 2.0 0.00 0.01 0.01 54 1010.7
20260505150328 74 129 0.0 0.0 0.00 0.01 0.01 53 1010.8
20260505140252 68 118 0.0 0.0 0.00 0.01 0.01 65 1011.3
20260505130216 63 133 0.0 0.0 0.00 0.01 0.01 73 1010.7
20260505124706 61 127 0.0 0.0 0.00 0.01 0.01 77 1011.0
20260505124203 61 106 0.0 1.0 0.00 0.01 0.01 79 1011.0
20260505123659 60 123 0.0 1.0 0.00 0.01 0.01 81 1010.9
20260505123156 59 122 0.0 1.0 0.00 0.01 0.01 83 1011.2
20260505122653 57 136 0.0 0.0 0.00 0.01 0.01 89 1011.0
20260505122150 57 127 0.0 0.0 0.00 0.01 0.01 92 1011.2
20260505121646 57 134 0.0 0.0 0.00 0.01 0.01 93 1010.9
20260505121143 56 134 0.0 0.0 0.00 0.01 0.01 93 1010.9
20260505120639 56 140 0.0 0.0 0.00 0.01 0.01 94 1010.7
20260505120136 56 130 0.0 0.0 0.00 0.01 0.01 93 1010.5
20260505115629 56 150 1.0 1.0 0.00 0.01 0.01 91 1010.4
20260505115127 56 141 1.0 1.0 0.00 0.01 0.01 88 1010.5
20260505114624 57 127 0.0 0.0 0.07 0.01 0.01 88 1011.0
20260505114120 57 126 0.0 1.0 0.00 0.00 0.00 84 1011.5
20260505113617 57 126 0.0 0.0 0.00 0.00 0.00 84 1011.3
20260505113114 58 132 0.0 0.0 0.00 0.00 0.00 82 1011.8
20260505112610 57 136 0.0 0.0 0.00 0.00 0.00 81 1011.8
20260505112108 57 134 0.0 0.0 0.00 0.00 0.00 81 1011.2
20260505111602 57 130 0.0 0.0 0.00 0.00 0.00 83 1011.3
20260505111058 57 134 0.0 0.0 0.00 0.00 0.00 84 1011.5
20260505110554 55 129 0.0 0.0 0.00 0.00 0.00 85 1011.3
20260505102021 51 136 0.0 0.0 0.00 0.00 0.00 91 1010.9
20260505101520 51 138 0.0 0.0 0.00 0.00 0.00 91 1011.1
20260505101015 51 133 0.0 0.0 0.00 0.00 0.00 91 1010.8
20260505100513 52 137 0.0 0.0 0.00 0.00 0.00 91 1010.8
20260505100010 52 132 0.0 0.0 0.00 0.00 0.00 91 1010.6
20260505095506 51 145 0.0 0.0 0.00 0.00 0.00 90 1010.6
20260505095002 51 137 0.0 0.0 0.00 0.00 0.00 90 1010.4
20260505094459 51 136 0.0 0.0 0.00 0.00 0.00 90 1010.3
20260505093955 52 138 0.0 0.0 0.00 0.00 0.00 90 1010.1
20260505093452 52 138 0.0 0.0 0.00 0.00 0.00 90 1010.2
20260505092949 52 143 0.0 0.0 0.00 0.00 0.00 89 1010.2
20260505092446 52 137 0.0 0.0 0.00 0.00 0.00 89 1010.3
20260505091944 52 137 0.0 0.0 0.00 0.00 0.00 89 1010.2
20260505091441 52 136 0.0 0.0 0.00 0.00 0.00 89 1010.2
20260505090939 52 138 0.0 0.0 0.00 0.00 0.00 88 1010.1
20260505090437 52 144 0.0 0.0 0.00 0.00 0.00 88 1010.1
20260505085934 52 125 0.0 0.0 0.00 0.00 0.00 88 1010.2
20260505085432 52 138 0.0 0.0 0.00 0.00 0.00 89 1010.1
20260505084930 52 141 0.0 0.0 0.00 0.00 0.00 89 1010.3
20260505084428 51 134 0.0 0.0 0.00 0.00 0.00 88 1010.0
20260505083926 52 135 0.0 0.0 0.00 0.00 0.00 88 1010.1
20260505083423 52 136 0.0 0.0 0.00 0.00 0.00 88 1010.3
20260505082919 52 134 0.0 0.0 0.00 0.00 0.00 87 1010.2
20260505082415 52 134 0.0 0.0 0.00 0.00 0.00 87 1010.2
20260505081912 52 134 0.0 0.0 0.00 0.00 0.00 87 1010.1
20260505081409 52 141 0.0 0.0 0.00 0.00 0.00 87 1010.4
20260505080905 52 136 0.0 0.0 0.00 0.00 0.00 86 1010.2
20260505080401 53 133 0.0 0.0 0.00 0.00 0.00 86 1010.3
20260505075857 53 131 0.0 0.0 0.00 0.00 0.00 86 1010.4
20260505075354 52 148 0.0 0.0 0.00 0.00 0.00 86 1010.3
20260505074851 52 148 0.0 0.0 0.00 0.00 0.00 86 1010.3
20260505074348 52 148 0.0 0.0 0.00 0.00 0.00 86 1010.4
20260505073846 52 148 0.0 0.0 0.00 0.00 0.00 85 1010.5
20260505073343 52 148 0.0 0.0 0.00 0.00 0.00 85 1010.2
20260505072840 52 149 0.0 0.0 0.00 0.00 0.00 85 1010.1
20260505072336 52 124 0.0 0.0 0.00 0.00 0.00 86 1010.4
20260505071832 52 124 0.0 0.0 0.00 0.00 0.00 86 1010.1
20260505071329 52 134 0.0 0.0 0.00 0.00 0.00 86 1010.0
20260505070827 52 133 0.0 0.0 0.00 0.00 0.00 86 1010.2
20260505070323 52 123 0.0 0.0 0.00 0.00 0.00 86 1010.1
20260505065819 52 133 0.0 0.0 0.00 0.00 0.00 85 1010.1
20260505065316 52 136 0.0 0.0 0.00 0.00 0.00 85 1010.1
20260505064813 52 135 0.0 0.0 0.00 0.00 0.00 85 1010.2
20260505064310 52 135 0.0 0.0 0.00 0.00 0.00 85 1010.1
20260505063808 52 134 0.0 0.0 0.00 0.00 0.00 85 1010.3
20260505063304 52 141 0.0 0.0 0.00 0.00 0.00 84 1010.5
20260505062800 52 117 0.0 1.0 0.00 0.00 0.00 84 1010.4
20260505062258 52 123 0.0 1.0 0.00 0.00 0.00 84 1010.5
20260505061754 52 136 0.0 0.0 0.00 0.00 0.00 84 1010.5
20260505061252 52 133 0.0 0.0 0.00 0.00 0.00 83 1010.3
20260505060750 52 131 0.0 0.0 0.00 0.00 0.00 84 1010.7
20260505060247 52 133 0.0 0.0 0.00 0.00 0.00 83 1010.4
20260505055742 52 133 0.0 0.0 0.00 0.00 0.00 83 1010.5
20260505055238 52 135 0.0 0.0 0.00 0.00 0.00 83 1010.7
20260505054736 52 134 0.0 0.0 0.00 0.00 0.00 83 1010.3
20260505054234 52 131 0.0 0.0 0.00 0.00 0.00 83 1010.6
20260505053732 52 132 0.0 0.0 0.00 0.00 0.00 83 1010.4
20260505053228 52 129 0.0 0.0 0.00 0.00 0.00 83 1010.5
20260505052725 52 132 0.0 0.0 0.00 0.00 0.00 83 1010.5
20260505052222 53 139 0.0 0.0 0.00 0.00 0.00 82 1010.7
20260505051719 53 134 0.0 0.0 0.00 0.00 0.00 81 1010.7
20260505051217 53 134 0.0 0.0 0.00 0.00 0.00 81 1010.7
20260505050715 53 139 0.0 0.0 0.00 0.00 0.00 81 1010.7
20260505050213 53 134 0.0 0.0 0.00 0.00 0.00 81 1010.7
20260505041643 55 137 0.0 0.0 0.00 0.00 0.00 79 1010.8
20260505041140 55 130 0.0 0.0 0.00 0.00 0.00 76 1010.9
20260505040637 55 133 0.0 0.0 0.00 0.00 0.00 76 1010.7
20260505040134 55 132 0.0 0.0 0.00 0.00 0.00 77 1010.8
20260505035630 55 132 0.0 0.0 0.00 0.00 0.00 76 1010.8
20260505035126 55 132 0.0 0.0 0.00 0.00 0.00 76 1010.6
20260505034623 56 134 0.0 0.0 0.00 0.00 0.00 74 1010.8
20260505034120 56 132 0.0 0.0 0.00 0.00 0.00 74 1010.9
20260505033617 56 132 0.0 0.0 0.00 0.00 0.00 74 1010.7
20260505033116 56 124 0.0 0.0 0.00 0.00 0.00 75 1011.1
20260505032613 55 132 0.0 0.0 0.00 0.00 0.00 76 1010.9
20260505032109 55 132 0.0 0.0 0.00 0.00 0.00 77 1010.8
20260505031606 55 133 0.0 0.0 0.00 0.00 0.00 77 1010.8
20260505031103 55 140 0.0 0.0 0.00 0.00 0.00 76 1010.7
20260505030600 55 132 0.0 0.0 0.00 0.00 0.00 79 1010.7
20260505030055 55 138 0.0 0.0 0.00 0.00 0.00 79 1010.8
20260505025551 54 131 0.0 0.0 0.00 0.00 0.00 80 1010.7
20260505025051 54 131 0.0 0.0 0.00 0.00 0.00 81 1010.9
20260505024547 54 128 0.0 0.0 0.00 0.00 0.00 82 1010.7
20260505024044 54 130 0.0 0.0 0.00 0.00 0.00 82 1010.7
20260505023541 53 115 0.0 0.0 0.00 0.00 0.00 82 1010.7
20260505023039 53 132 0.0 0.0 0.00 0.00 0.00 82 1011.1
20260505022536 54 131 0.0 0.0 0.00 0.00 0.00 82 1011.1
20260505022033 54 131 0.0 0.0 0.00 0.00 0.00 82 1011.0
20260505021529 54 127 0.0 0.0 0.00 0.00 0.00 81 1010.9
20260505021021 54 120 1.0 1.0 0.00 0.00 0.00 81 1010.9
20260505020520 54 135 0.0 0.0 0.00 0.00 0.00 81 1011.0
20260505020018 54 130 0.0 0.0 0.00 0.00 0.00 81 1010.9
20260505015515 54 130 0.0 0.0 0.00 0.00 0.00 80 1011.0
20260505015012 54 130 0.0 0.0 0.00 0.00 0.00 80 1010.8
20260505014509 55 128 0.0 0.0 0.00 0.00 0.00 79 1010.8